Location: New Town
(33.2710°N, 90.7534°W)
Time: 13:33:52
(UTC+00:00)

Explorer 11/Cluster Stage 4 - Pass Details

Date: 18 May 2021
Orbit: 467 x 1257 km, 28.8° (Epoch: 14 June)

Event Time Altitude Azimuth Distance (km) Brightness Sun altitude
Rises 21:14:54 0° 194° (SSW) 3,305 10.0 44.7°
Reaches altitude 10° 21:19:23 10° 161° (SSE) 2,596 9.2 43.7°
Maximum altitude 21:21:14 11° 144° (SE) 2,586 9.1 43.4°
Drops below altitude 10° 21:23:11 10° 127° (SE) 2,768 9.1 43.0°
Sets 21:28:31 0° 96° (E) 3,932 9.7 41.8°
